Overview Statistics Trail Chart Weather Telemetry Raw packets
 

This is the latest recevied weather packets stored in our database for station/object W0AKY-13. If no packets are shown the sender has not sent any weather packets the latest 10 day(s).

<< 34 35 36 37 38 39 40 >>
Time Temp. Humidity Pressure Rain* Wind** Luminosity Snow
1788378902 37.78° C 44% 1013.1 hPa 0 mm - 502 W/m² -
1788378601 37.78° C 41% 1013.3 hPa 0 mm - 509 W/m² -
1788378301 37.22° C 41% 1013.1 hPa 0 mm - 517 W/m² -
1788377996 37.22° C 44% 1013.3 hPa 0 mm - 522 W/m² -
1788377692 37.22° C 45% 1013.2 hPa 0 mm - 525 W/m² -
1788377390 36.67° C 43% 1013.2 hPa 0 mm - 527 W/m² -
1788377089 36.67° C 43% 1013.3 hPa 0 mm - 531 W/m² -
1788376788 36.67° C 44% 1013.2 hPa 0 mm - 532 W/m² -
1788376483 36.67° C 47% 1013.4 hPa 0 mm - 543 W/m² -
1788376179 36.67° C 43% 1013.5 hPa 0 mm - 548 W/m² -
1788375874 36.67° C 45% 1013.8 hPa 0 mm - 551 W/m² -
1788375569 36.67° C 44% 1013.3 hPa 0 mm - 554 W/m² -
1788375266 36.67° C 47% 1013.4 hPa 0 mm - 557 W/m² -
1788374961 36.67° C 45% 1013.7 hPa 0 mm - 564 W/m² -
1788374656 36.67° C 45% 1013.8 hPa 0 mm - 564 W/m² -
1788374351 36.11° C 45% 1013.7 hPa 0 mm - 565 W/m² -
1788374057 36.11° C 44% 1013.8 hPa 0 mm - 574 W/m² -
1788373743 36.11° C 45% 1014 hPa 0 mm - 573 W/m² -
1788373440 36.11° C 44% 1013.7 hPa 0 mm - 575 W/m² -
1788373136 36.11° C 48% 1013.9 hPa 0 mm - 575 W/m² -
1788372831 36.11° C 46% 1013.8 hPa 0 mm - 577 W/m² -
1788372531 36.11° C 46% 1014 hPa 0 mm - 574 W/m² -
1788372226 35.56° C 46% 1014.1 hPa 0 mm - 573 W/m² -
1788371921 35.56° C 48% 1014.2 hPa 0 mm - 573 W/m² -
1788371617 35.56° C 47% 1014 hPa 0 mm - 566 W/m² -

* Rain latest hour (hover to see other rain measurements)
** Current wind speed in m/s (hover to see current wind gust speed)